FW6909 Weather Reports


Display with metric or nautical units.
time (UTC)temp
F
wind
direction
speed
MPH
gust
MPH
rain 1hr
in
rain 24hr
in
rain mn
in
humidity
%
barometer
mb
20260903111034 63 318 1.0 4.0 0.00 0.72 0.03 75 1009.7
20260903110532 63 236 1.0 2.0 0.00 0.72 0.03 76 1010.0
20260903110049 63 275 0.0 3.0 0.00 0.72 0.03 77 1009.9
20260903105533 62 298 1.0 3.0 0.00 0.72 0.03 77 1010.0
20260903105033 62 190 1.0 5.0 0.00 0.72 0.03 77 1009.9
20260903104545 62 283 1.0 5.0 0.00 0.72 0.03 77 1009.9
20260903104032 62 283 1.0 5.0 0.00 0.72 0.03 77 1009.9
20260903103532 62 289 1.0 4.0 0.00 0.72 0.03 76 1009.9
20260903103052 62 317 2.0 4.0 0.00 0.72 0.03 76 1009.8
20260903102535 62 290 1.0 4.0 0.00 0.72 0.03 77 1009.6
20260903102032 62 281 1.0 4.0 0.00 0.72 0.03 76 1009.7
20260903101551 62 252 1.0 4.0 0.00 0.72 0.03 76 1009.8
20260903101034 62 282 1.0 3.0 0.00 0.72 0.03 76 1009.6
20260903100532 62 328 1.0 3.0 0.00 0.72 0.03 77 1009.7
20260903100045 62 236 1.0 3.0 0.00 0.72 0.03 77 1009.6
20260903095531 62 278 1.0 3.0 0.00 0.72 0.03 77 1009.6
20260903095031 62 297 1.0 3.0 0.00 0.72 0.03 78 1009.7
20260903094546 62 259 1.0 3.0 0.00 0.72 0.03 79 1009.7
20260903094031 61 240 1.0 3.0 0.00 0.72 0.03 80 1009.9
20260903093531 61 330 1.0 3.0 0.00 0.72 0.03 81 1009.9
20260903093044 60 306 1.0 4.0 0.00 0.72 0.03 82 1009.8
20260903092533 59 289 1.0 4.0 0.00 0.72 0.03 83 1009.8
20260903092030 59 252 0.0 2.0 0.00 0.72 0.03 83 1009.9
20260903091553 58 257 0.0 2.0 0.00 0.72 0.03 83 1009.7
20260903091031 58 158 0.0 3.0 0.00 0.72 0.03 83 1009.7
20260903090533 58 266 0.0 3.0 0.00 0.72 0.03 83 1009.7
20260903090046 58 303 1.0 4.0 0.00 0.72 0.03 83 1009.9
20260903085531 58 257 1.0 5.0 0.00 0.76 0.03 82 1009.7
20260903085031 59 293 2.0 5.0 0.00 0.76 0.03 81 1009.5
20260903084543 59 302 2.0 4.0 0.00 0.76 0.03 80 1009.6
20260903084031 59 291 2.0 4.0 0.00 0.76 0.03 80 1009.4
20260903083530 59 264 2.0 4.0 0.00 0.76 0.03 81 1009.5
20260903083047 59 288 1.0 4.0 0.00 0.76 0.03 81 1009.5
20260903082530 59 305 1.0 4.0 0.00 0.76 0.03 81 1009.4
20260903082031 58 300 2.0 5.0 0.00 0.76 0.03 81 1009.4
20260903081550 58 267 2.0 5.0 0.00 0.76 0.03 81 1009.3
20260903081029 58 285 2.0 5.0 0.00 0.76 0.03 82 1009.2
20260903080536 58 249 1.0 4.0 0.00 0.76 0.03 82 1009.0
20260903080046 58 269 1.0 4.0 0.00 0.76 0.03 82 1009.0
20260903075531 58 300 2.0 4.0 0.00 0.78 0.03 82 1008.9
20260903075031 58 288 2.0 4.0 0.00 0.78 0.03 82 1008.9
20260903074551 57 309 2.0 4.0 0.00 0.78 0.03 83 1008.9
20260903074031 57 269 1.0 4.0 0.00 0.78 0.03 83 1009.1
20260903073530 57 290 1.0 5.0 0.00 0.78 0.03 82 1008.9
20260903073048 57 339 1.0 5.0 0.00 0.78 0.03 82 1009.0
20260903072532 57 259 2.0 5.0 0.00 0.78 0.03 82 1009.0
20260903072031 57 340 1.0 5.0 0.00 0.78 0.03 83 1009.1
20260903071545 57 223 2.0 5.0 0.00 0.78 0.03 83 1009.2
20260903071031 57 306 2.0 5.0 0.00 0.78 0.03 83 1009.0
20260903070531 57 265 2.0 5.0 0.00 0.78 0.03 83 1009.0
20260903070054 57 281 2.0 5.0 0.00 0.78 0.03 84 1008.8
20260903065531 57 272 2.0 4.0 0.00 0.81 0.03 84 1008.8
20260903065031 57 252 2.0 4.0 0.00 0.81 0.03 85 1008.7
20260903064549 57 301 1.0 4.0 0.00 0.81 0.03 85 1008.6
20260903064030 57 300 1.0 4.0 0.00 0.81 0.03 85 1008.5
20260903063532 57 323 1.0 5.0 0.00 0.81 0.03 85 1008.3
20260903063049 57 266 2.0 5.0 0.00 0.81 0.03 85 1008.5
20260903062534 57 314 2.0 4.0 0.00 0.81 0.03 86 1008.6
20260903062033 56 285 1.0 5.0 0.00 0.81 0.03 86 1008.6
20260903061552 56 273 2.0 5.0 0.00 0.81 0.03 87 1008.8
20260903061030 56 78 0.0 2.0 0.00 0.81 0.03 87 1008.6
20260903060530 56 270 0.0 2.0 0.00 0.81 0.03 87 1008.8
20260903060056 56 271 0.0 1.0 0.00 0.81 0.03 87 1008.9
20260903055530 56 86 0.0 3.0 0.00 0.83 0.03 87 1008.9
20260903055030 56 0 0.0 3.0 0.00 0.83 0.03 87 1008.7
20260903054550 56 128 0.0 1.0 0.00 0.83 0.03 87 1008.7
20260903054030 56 0 0.0 1.0 0.00 0.83 0.03 87 1008.5
20260903053531 56 245 0.0 4.0 0.00 0.83 0.03 87 1008.4
20260903053048 56 232 0.0 4.0 0.00 0.83 0.03 87 1008.2
20260903052533 56 352 1.0 3.0 0.00 0.83 0.03 87 1008.1
20260903052030 56 281 1.0 3.0 0.00 0.83 0.03 87 1008.1
20260903051545 56 288 1.0 3.0 0.00 0.83 0.03 87 1008.1
20260903051034 56 276 1.0 3.0 0.00 0.83 0.03 88 1007.9
20260903050531 56 320 1.0 5.0 0.00 0.83 0.03 88 1008.0
20260903050050 56 259 1.0 5.0 0.00 0.83 0.03 88 1008.1
20260903045532 56 165 1.0 5.0 0.00 0.85 0.03 88 1007.9
20260903045036 57 256 0.0 2.0 0.00 0.85 0.03 88 1007.9
20260903044547 57 29 0.0 1.0 0.00 0.85 0.03 89 1007.7
20260903044032 57 0 0.0 1.0 0.00 0.85 0.03 89 1007.6
20260903043532 57 139 0.0 1.0 0.00 0.85 0.03 89 1007.6
20260903043053 57 342 0.0 3.0 0.00 0.85 0.03 89 1007.5
20260903042531 57 0 0.0 3.0 0.00 0.85 0.03 89 1007.7
20260903042035 58 203 1.0 3.0 0.00 0.85 0.03 89 1007.6
20260903041552 58 30 1.0 3.0 0.00 0.85 0.03 89 1007.6
20260903041032 58 271 1.0 3.0 0.00 0.85 0.03 89 1007.6
20260903040531 58 43 0.0 3.0 0.00 0.85 0.03 89 1007.4
20260903040047 58 236 1.0 4.0 0.00 0.85 0.03 89 1007.5
20260903035531 58 300 1.0 5.0 0.00 0.85 0.03 89 1007.4
20260903035031 58 291 1.0 5.0 0.00 0.85 0.03 89 1007.3
20260903034550 58 319 1.0 4.0 0.00 0.85 0.03 89 1007.3
20260903034032 58 292 1.0 5.0 0.00 0.85 0.03 89 1007.1
20260903033533 59 224 0.0 5.0 0.00 0.85 0.03 89 1007.2
20260903033042 59 298 1.0 3.0 0.00 0.85 0.03 89 1007.2
20260903032533 59 255 0.0 3.0 0.00 0.85 0.03 89 1007.3
20260903032032 59 268 0.0 2.0 0.00 0.85 0.03 89 1007.1
20260903031551 59 262 0.0 2.0 0.00 0.85 0.03 89 1007.1
20260903031031 59 178 0.0 2.0 0.00 0.85 0.03 89 1007.0
20260903030534 59 81 0.0 3.0 0.00 0.85 0.03 89 1007.0
20260903030049 59 84 0.0 6.0 0.00 0.85 0.03 89 1006.9
20260903025535 59 0 1.0 6.0 0.00 0.85 0.03 89 1007.0
20260903025032 59 244 0.0 4.0 0.00 0.85 0.03 89 1007.0
20260903024551 59 218 1.0 4.0 0.00 0.85 0.03 90 1007.0
20260903024033 59 273 0.0 2.0 0.00 0.85 0.03 89 1006.9
20260903023533 59 39 0.0 1.0 0.00 0.85 0.03 90 1006.8
20260903023116 59 0 0.0 1.0 0.00 0.85 0.03 89 1006.9
20260903022534 59 234 0.0 3.0 0.00 0.85 0.03 89 1006.9
20260903022031 59 0 0.0 3.0 0.00 0.85 0.03 89 1006.9
20260903021553 59 86 0.0 3.0 0.00 0.85 0.03 89 1006.9
20260903021031 59 129 0.0 2.0 0.00 0.85 0.03 89 1006.9
20260903020535 59 287 0.0 3.0 0.00 0.85 0.03 89 1006.9
20260903020055 59 290 0.0 3.0 0.00 0.85 0.03 89 1006.9
20260903015536 59 223 1.0 3.0 0.00 0.85 0.03 89 1006.7
20260903015031 59 313 0.0 2.0 0.00 0.85 0.03 89 1006.8
20260903014558 59 220 0.0 1.0 0.00 0.85 0.03 89 1006.7
20260903014031 59 143 0.0 1.0 0.00 0.85 0.03 89 1006.8
20260903013531 59 0 0.0 2.0 0.00 0.85 0.03 89 1006.8
20260903013052 59 94 0.0 2.0 0.00 0.85 0.03 89 1006.8
20260903012534 59 45 0.0 2.0 0.00 0.85 0.03 89 1006.9
20260903012036 59 0 0.0 2.0 0.00 0.85 0.03 89 1007.0
20260903011547 59 243 0.0 2.0 0.00 0.85 0.03 89 1007.1
20260903011032 59 60 0.0 2.0 0.00 0.85 0.03 89 1007.1
20260903010532 59 249 1.0 2.0 0.00 0.85 0.03 89 1007.0
20260903010056 60 266 0.0 2.0 0.00 0.85 0.03 89 1007.0
20260903005532 60 196 0.0 4.0 0.00 0.85 0.03 89 1006.9
20260903005035 60 290 1.0 4.0 0.00 0.85 0.03 89 1007.0
20260903004543 60 300 1.0 5.0 0.00 0.85 0.03 89 1007.1
20260903004031 60 271 1.0 9.0 0.00 0.85 0.03 89 1007.0
20260903003532 60 303 2.0 9.0 0.01 0.85 0.03 90 1007.0
20260903003042 60 315 3.0 9.0 0.02 0.85 0.03 90 1007.1
20260903002531 60 285 2.0 6.0 0.02 0.84 0.02 90 1007.0
20260903002031 60 282 2.0 6.0 0.02 0.84 0.02 90 1006.8
20260903001552 60 288 2.0 5.0 0.02 0.84 0.02 90 1006.8
20260903001035 60 301 2.0 5.0 0.02 0.84 0.02 90 1006.9
20260903000531 60 307 2.0 6.0 0.02 0.84 0.02 90 1006.8
20260903000046 60 277 2.0 6.0 0.02 0.84 0.02 90 1006.8
20260902235531 60 276 2.0 8.0 0.02 0.85 0.02 90 1006.8
20260902235031 61 285 3.0 8.0 0.02 0.85 0.02 90 1006.7
20260902234549 61 264 1.0 4.0 0.03 0.85 0.02 90 1006.7
20260902234031 61 287 2.0 4.0 0.03 0.85 0.02 90 1006.5
20260902233531 61 266 1.0 3.0 0.02 0.84 0.01 90 1006.6
20260902233044 61 300 1.0 3.0 0.01 0.83 0.00 90 1006.5
20260902232533 61 340 1.0 3.0 0.00 0.82 0.00 90 1006.4
20260902232034 61 328 0.0 3.0 0.01 0.82 0.00 90 1006.2
20260902231551 61 247 0.0 2.0 0.02 0.82 0.00 90 1006.2
20260902231031 61 287 0.0 3.0 0.03 0.82 0.00 90 1006.0
20260902230530 61 186 0.0 3.0 0.03 0.82 0.00 90 1006.0
20260902230049 60 244 0.0 3.0 0.03 0.82 0.00 91 1006.0
20260902225531 60 264 0.0 1.0 0.03 0.83 0.82 90 1006.3
20260902225035 59 0 0.0 1.0 0.03 0.83 0.82 90 1006.3
20260902224544 59 296 0.0 1.0 0.03 0.82 0.81 90 1006.2
20260902224028 58 296 0.0 1.0 0.03 0.82 0.81 90 1006.3
20260902223531 58 0 0.0 1.0 0.03 0.82 0.81 90 1006.5
20260902223050 58 0 0.0 0.0 0.04 0.82 0.81 90 1006.5
20260902222530 58 0 0.0 1.0 0.04 0.82 0.81 90 1006.6
20260902222031 58 0 0.0 1.0 0.03 0.81 0.81 90 1006.7
20260902221547 58 277 0.0 1.0 0.03 0.81 0.80 90 1006.7
20260902221031 58 0 0.0 1.0 0.02 0.80 0.79 90 1006.7
20260902220528 58 0 0.0 1.0 0.01 0.79 0.78 90 1006.6
20260902220048 58 0 0.0 1.0 0.01 0.79 0.78 90 1006.6
20260902215531 58 0 0.0 1.0 0.01 0.79 0.78 90 1006.6
20260902215035 58 0 0.0 1.0 0.01 0.79 0.78 90 1006.6
20260902214551 58 0 0.0 1.0 0.02 0.79 0.78 90 1006.6
20260902214031 58 0 0.0 1.0 0.02 0.78 0.77 90 1006.6
20260902213530 58 0 0.0 1.0 0.04 0.78 0.77 90 1006.7
20260902213047 58 283 0.0 1.0 0.11 0.77 0.77 90 1006.7
20260902212531 58 282 0.0 1.0 0.25 0.77 0.77 90 1006.7
20260902212031 58 258 0.0 1.0 0.37 0.77 0.77 90 1006.8
20260902211544 58 252 0.0 1.0 0.42 0.77 0.77 90 1006.8
20260902211028 58 271 0.0 2.0 0.46 0.77 0.77 90 1006.9
20260902210528 58 0 0.0 2.0 0.47 0.77 0.77 90 1006.9
20260902210051 58 0 1.0 2.0 0.47 0.77 0.77 90 1006.9
20260902205528 59 283 0.0 1.0 0.48 0.77 0.77 90 1007.0
20260902205031 59 285 0.0 1.0 0.48 0.77 0.77 90 1007.0
20260902204553 59 0 0.0 0.0 0.48 0.77 0.76 90 1006.8
20260902204031 59 0 0.0 0.0 0.47 0.76 0.75 90 1006.9
20260902203532 59 0 0.0 1.0 0.44 0.74 0.73 90 1006.8
20260902203046 59 0 0.0 1.0 0.37 0.66 0.65 90 1006.9
20260902202528 59 77 0.0 1.0 0.22 0.50 0.49 90 1006.9
20260902202031 59 0 0.0 0.0 0.11 0.40 0.39 90 1007.2
20260902201550 59 0 0.0 0.0 0.06 0.34 0.33 90 1007.3
20260902201034 59 0 0.0 1.0 0.03 0.30 0.29 90 1007.4
20260902200531 59 0 0.0 1.0 0.03 0.30 0.29 90 1007.3
20260902200046 59 82 0.0 1.0 0.03 0.30 0.29 90 1007.3
20260902195533 58 0 0.0 1.0 0.02 0.29 0.29 90 1007.3
20260902195033 58 89 0.0 1.0 0.02 0.29 0.28 90 1007.3
20260902194555 58 87 0.0 1.0 0.02 0.29 0.28 90 1007.4
20260902194028 58 84 1.0 1.0 0.02 0.29 0.28 90 1007.1
20260902193535 58 70 0.0 1.0 0.03 0.29 0.28 90 1007.3
20260902193058 58 0 0.0 1.0 0.02 0.28 0.27 90 1007.4
20260902192531 58 79 0.0 1.0 0.02 0.28 0.27 90 1007.6
20260902192031 58 0 0.0 1.0 0.03 0.28 0.27 90 1007.7
20260902191553 58 0 0.0 1.0 0.02 0.27 0.26 90 1007.6
20260902191032 58 20 0.0 2.0 0.02 0.27 0.26 90 1007.7
20260902190532 58 45 0.0 2.0 0.03 0.27 0.26 90 1007.8
20260902190049 59 89 0.0 2.0 0.03 0.27 0.26 90 1007.7
20260902185534 59 75 0.0 2.0 0.03 0.27 0.26 90 1007.8
20260902185032 59 82 1.0 1.0 0.03 0.26 0.25 90 1007.8
20260902184623 59 0 0.0 1.0 0.03 0.26 0.25 90 1007.9
20260902184028 59 0 0.0 1.0 0.03 0.26 0.25 90 1008.0
20260902183531 58 0 0.0 1.0 0.02 0.25 0.25 90 1007.9
20260902183042 58 0 0.0 2.0 0.03 0.25 0.25 90 1008.0
20260902182531 58 94 0.0 3.0 0.03 0.25 0.25 90 1007.9
20260902182028 58 77 0.0 3.0 0.02 0.25 0.24 90 1007.9
20260902181556 58 74 1.0 3.0 0.02 0.25 0.24 90 1007.8
20260902181028 58 85 0.0 2.0 0.02 0.25 0.24 90 1007.9
20260902180531 58 104 1.0 3.0 0.01 0.24 0.23 90 1008.1
20260902180055 58 64 1.0 3.0 0.01 0.24 0.23 90 1008.1
20260902175531 58 75 1.0 3.0 0.02 0.24 0.23 89 1008.2
20260902175034 59 65 0.0 3.0 0.01 0.23 0.22 90 1008.2
20260902174549 59 67 1.0 4.0 0.01 0.23 0.22 90 1008.3
20260902174031 59 94 1.0 4.0 0.01 0.23 0.22 90 1008.3
20260902173531 59 81 2.0 4.0 0.01 0.23 0.22 89 1008.5
20260902173047 59 61 2.0 4.0 0.01 0.22 0.22 89 1008.6
20260902172528 59 56 1.0 4.0 0.01 0.22 0.22 90 1008.7
20260902172031 58 81 1.0 3.0 0.01 0.22 0.22 89 1008.7
20260902171606 58 77 1.0 3.0 0.02 0.22 0.22 89 1008.7
20260902171028 58 87 1.0 3.0 0.02 0.22 0.22 89 1008.8
20260902170531 58 70 1.0 2.0 0.02 0.22 0.22 89 1009.0
20260902170051 58 69 1.0 2.0 0.02 0.22 0.22 89 1009.0
20260902165533 58 72 1.0 2.0 0.02 0.22 0.21 89 1009.0
20260902165031 58 67 1.0 2.0 0.02 0.22 0.21 89 1009.2
20260902164547 58 61 1.0 2.0 0.02 0.22 0.21 89 1009.1
20260902164031 58 64 1.0 2.0 0.02 0.22 0.21 89 1009.2
20260902163531 58 82 1.0 2.0 0.02 0.22 0.21 89 1009.3
20260902163043 58 83 1.0 2.0 0.01 0.21 0.20 89 1009.4
20260902162530 58 76 1.0 2.0 0.01 0.21 0.20 89 1009.6
20260902162031 58 49 1.0 2.0 0.00 0.20 0.19 89 1009.4
20260902161543 58 62 0.0 1.0 0.00 0.20 0.19 89 1009.5
20260902161034 58 75 1.0 2.0 0.01 0.20 0.19 89 1009.6
20260902160531 58 0 1.0 2.0 0.01 0.20 0.19 89 1009.6
20260902160053 57 64 0.0 2.0 0.01 0.20 0.19 89 1009.7
20260902155531 57 100 0.0 2.0 0.00 0.26 0.18 89 1009.6
20260902155035 57 75 0.0 2.0 0.00 0.26 0.18 89 1009.8
20260902154541 57 90 0.0 2.0 0.00 0.26 0.18 89 1009.9
20260902154031 57 76 1.0 2.0 0.00 0.26 0.18 89 1010.0
20260902153528 57 91 1.0 2.0 0.00 0.26 0.18 89 1010.0
20260902153055 56 85 1.0 2.0 0.00 0.26 0.18 89 1010.1
20260902152532 56 83 1.0 2.0 0.00 0.26 0.18 89 1010.3
20260902152031 56 98 0.0 3.0 0.00 0.26 0.18 89 1010.2
20260902151555 56 82 1.0 3.0 0.00 0.26 0.18 89 1010.4
20260902151034 56 79 2.0 3.0 0.00 0.25 0.18 89 1010.4
20260902150531 56 68 1.0 3.0 0.00 0.25 0.18 89 1010.4
20260902150044 56 79 1.0 3.0 0.00 0.25 0.18 89 1010.5
20260902145532 56 58 2.0 3.0 0.00 0.30 0.18 89 1010.6
20260902145029 56 72 1.0 3.0 0.00 0.30 0.18 89 1010.7
20260902144554 56 58 2.0 3.0 0.00 0.30 0.18 89 1010.7
20260902144032 56 86 2.0 3.0 0.00 0.30 0.18 89 1010.7
20260902143531 56 90 1.0 4.0 0.00 0.30 0.18 89 1010.7
20260902143050 56 82 2.0 4.0 0.00 0.30 0.18 89 1010.7
20260902142531 56 70 2.0 4.0 0.00 0.30 0.18 89 1010.7
20260902142034 56 89 1.0 3.0 0.00 0.30 0.18 89 1010.7
20260902141552 56 101 1.0 3.0 0.00 0.30 0.18 89 1010.9
20260902141031 56 75 1.0 4.0 0.01 0.30 0.18 89 1010.8
20260902140530 56 77 1.0 4.0 0.01 0.30 0.18 89 1010.9
20260902140052 56 79 1.0 3.0 0.01 0.30 0.18 89 1011.0
20260902135530 56 81 0.0 2.0 0.01 0.30 0.18 89 1011.0
20260902135027 56 0 0.0 2.0 0.02 0.30 0.18 89 1011.1
20260902134543 56 59 0.0 2.0 0.02 0.30 0.18 89 1011.1
20260902134027 56 81 1.0 4.0 0.01 0.29 0.17 89 1011.1
20260902133529 56 78 1.0 4.0 0.01 0.29 0.17 89 1011.1
20260902133052 56 76 2.0 4.0 0.02 0.29 0.17 89 1011.2
20260902132531 56 71 1.0 4.0 0.03 0.29 0.17 89 1011.2
20260902132030 56 68 1.0 4.0 0.03 0.29 0.17 88 1011.1
20260902131553 56 91 2.0 4.0 0.03 0.29 0.17 88 1011.1
20260902131030 57 99 1.0 4.0 0.02 0.29 0.16 88 1011.2
20260902130531 57 91 1.0 2.0 0.02 0.29 0.16 89 1011.3
20260902130053 57 83 1.0 2.0 0.02 0.29 0.16 89 1011.4
20260902125527 57 89 1.0 2.0 0.02 0.32 0.16 89 1011.3
20260902125031 57 76 0.0 2.0 0.02 0.31 0.15 89 1011.4
20260902124545 57 80 1.0 3.0 0.02 0.31 0.15 88 1011.4
20260902124030 57 61 1.0 3.0 0.02 0.31 0.15 88 1011.5
20260902123530 57 91 1.0 3.0 0.01 0.30 0.14 88 1011.6
20260902123107 57 72 1.0 3.0 0.01 0.30 0.14 88 1011.5
20260902122531 58 91 1.0 3.0 0.00 0.29 0.14 88 1011.5
20260902122032 58 82 1.0 2.0 0.00 0.29 0.14 89 1011.6
20260902121554 59 79 0.0 1.0 0.00 0.29 0.14 89 1011.6
20260902121031 58 8 0.0 1.0 0.00 0.29 0.14 89 1011.7
20260902120531 58 341 0.0 1.0 0.00 0.29 0.14 89 1011.9
20260902120050 59 310 0.0 1.0 0.00 0.29 0.14 89 1011.9
20260902115531 59 0 0.0 1.0 0.00 0.29 0.14 89 1011.9
20260902115032 59 20 0.0 1.0 0.00 0.29 0.13 89 1012.0
20260902114552 58 0 0.0 1.0 0.00 0.29 0.13 89 1012.0
20260902114032 58 96 0.0 1.0 0.00 0.29 0.13 89 1012.1
20260902113531 58 37 0.0 1.0 0.00 0.29 0.13 89 1012.2
20260902113053 58 53 0.0 1.0 0.00 0.29 0.13 89 1012.3
20260902112531 58 72 0.0 2.0 0.00 0.29 0.13 89 1012.4
20260902112031 58 129 0.0 2.0 0.00 0.29 0.13 89 1012.6
20260902111551 58 24 0.0 2.0 0.00 0.29 0.13 89 1012.7